Location: Koussan�
(15.2012°N, 12.5548°W)
Time: 18:08:40
(UTC+00:00)

Cosmos 1300 - Pass Details

Date: 20 October 2020
Orbit: 511 x 513 km, 82.5° (Epoch: 30 November)

Event Time Altitude Azimuth Distance (km) Brightness Sun altitude
Rises 19:19:12 0° 189° (S) 2,612 6.5 -13.4°
Reaches altitude 10° 19:21:20 10° 192° (SSW) 1,727 5.6 -13.9°
Maximum altitude 19:25:06 66° 275° (W) 559 3.0 -14.8°
Drops below altitude 10° 19:28:52 10° 358° (N) 1,732 5.3 -15.7°
Sets 19:31:01 0° 1° (N) 2,619 6.2 -16.2°
